Home   Weather   51°09'N, 6°46'E   Past weeks
Flag for Germany

Past Weather in 51°09'N, 6°46'E, Germany — Yesterday and Last 2 Weeks

Now
55 °F

Light rain. Passing clouds.


Feels Like: 53 °F
Forecast: 62 / 53 °F
Wind: 8 mph from Southwest

Location: Duesseldorf

Current Time: Oct 16, 2019 at 2:51:58 am

Latest Report: Oct 16, 2019 at 1:50 am


Visibility: N/A

Pressure: 29.80 "Hg

Humidity: 94%

Dew Point: 54 °F

Location of 51°09'N, 6°46'ELocation

Past Weather in 51°09'N, 6°46'E — Graph

°F

51°09'N, 6°46'E Temperature Yesterday

Maximum temperature yesterday: 70 °F (at 12:50 am)
Minimum temperature yesterday: 55 °F (at 8:20 pm)
Average temperature yesterday: 61 °F

High & Low Weather Summary for the Past Weeks

 TemperatureHumidityPressure
High77 °F (Oct 13, 3:20 pm)100% (Oct 1, 3:50 am)30.09 "Hg (Oct 1, 3:50 am)
Low46 °F (Oct 3, 3:20 am)51% (Oct 2, 1:50 pm)29.50 "Hg (Oct 1, 6:20 pm)
Average56 °F82%29.83 "Hg
* Reported Oct 1 1:20 am — Oct 16 1:50 am, 51°09'N, 6°46'E. Weather by CustomWeather, © 2019

Note: Actual official high and low records may vary slightly from our data, if they occured in-between our weather recording intervals... More about our weather records

Advertising

51°09'N, 6°46'E Weather History for the Previous 24 Hours

Scroll right to see more
 ConditionsComfort  
Time TempWeatherWind HumidityBarometerVisibility
1:50 am
Wed, Oct 16
55 °FLight rain. Passing clouds.8 mph94%29.80 "HgN/A
1:20 am55 °FLight rain. Passing clouds.8 mph94%29.80 "HgN/A
12:50 am55 °FLight rain. Low clouds.9 mph94%29.80 "HgN/A
12:20 am55 °FLight rain. Low clouds.10 mph94%29.80 "HgN/A
11:50 pm
Tue, Oct 15
55 °FLight rain. Low clouds.12 mph94%29.80 "HgN/A
11:20 pm55 °FLight rain. Partly cloudy.10 mph100%29.80 "HgN/A
10:50 pm55 °FLight rain. Partly cloudy.9 mph100%29.80 "HgN/A
10:20 pm55 °FLight rain. Partly cloudy.7 mph100%29.77 "HgN/A
9:50 pm55 °FRain. Mostly cloudy.9 mph100%29.77 "Hg5 mi
9:20 pm55 °FLight rain. Passing clouds.6 mph100%29.77 "HgN/A
8:50 pm55 °FLight rain. Passing clouds.6 mph100%29.77 "HgN/A
8:20 pm55 °FLight rain. Partly cloudy.5 mph100%29.74 "HgN/A
7:50 pm57 °FLight rain. Mostly cloudy.3 mph94%29.74 "HgN/A
7:20 pm57 °FLight rain. Mostly cloudy.7 mph94%29.74 "HgN/A
6:50 pm57 °FLight rain. Mostly cloudy.8 mph94%29.74 "HgN/A
6:20 pm59 °FLight rain. Mostly cloudy.9 mph88%29.71 "HgN/A
5:50 pm61 °FLight rain. Broken clouds.6 mph88%29.71 "HgN/A
5:20 pm61 °FLight rain. Broken clouds.6 mph88%29.71 "HgN/A
4:50 pm61 °FLight rain. Partly sunny.3 mph88%29.71 "HgN/A
4:20 pm61 °FScattered clouds.8 mph83%29.71 "HgN/A
3:50 pm63 °FLight rain. Scattered clouds.7 mph77%29.71 "HgN/A
3:20 pm63 °FLight rain. Passing clouds.7 mph77%29.71 "HgN/A
2:50 pm63 °FPassing clouds.7 mph77%29.71 "HgN/A
2:20 pm63 °FPassing clouds.12 mph77%29.74 "HgN/A
1:50 pm64 °FScattered clouds.8 mph78%29.74 "HgN/A
1:20 pm63 °FPartly sunny.7 mph77%29.74 "HgN/A
12:50 pm63 °FScattered clouds.7 mph83%29.74 "HgN/A
12:20 pm64 °FScattered clouds.3 mph78%29.71 "HgN/A
11:50 am63 °FPassing clouds.6 mph77%29.71 "HgN/A
11:20 am64 °FPassing clouds.7 mph78%29.74 "HgN/A
10:50 am63 °FPassing clouds.6 mph83%29.71 "HgN/A
10:20 am63 °FPassing clouds.5 mph77%29.71 "HgN/A
9:50 am63 °FSprinkles. Scattered clouds.6 mph83%29.71 "HgN/A
9:20 am61 °FSprinkles. Scattered clouds.6 mph88%29.71 "HgN/A
8:50 am61 °FSunny.5 mph83%29.71 "Hg10 mi
8:20 am61 °FPassing clouds.5 mph83%29.71 "HgN/A
7:50 am61 °FClear.8 mph83%29.68 "Hg10 mi
7:20 am59 °FClear.9 mph88%29.68 "Hg10 mi
6:50 am59 °FClear.8 mph88%29.68 "Hg10 mi
6:20 am61 °FClear.12 mph83%29.68 "Hg10 mi
5:50 am61 °FClear.8 mph83%29.68 "Hg10 mi
5:20 am59 °FClear.8 mph82%29.68 "Hg10 mi
4:50 am61 °FClear.8 mph83%29.68 "Hg10 mi
4:20 am63 °FClear.8 mph77%29.71 "Hg10 mi
3:50 am63 °FClear.10 mph77%29.71 "Hg10 mi
3:20 am64 °FClear.14 mph73%29.71 "Hg10 mi
2:50 am64 °FClear.12 mph73%29.71 "Hg10 mi
2:20 am66 °FClear.13 mph68%29.71 "Hg10 mi
Weather by CustomWeather, © 2019

See weather overview